カタログに戻る

COSMOS 2557

GLONASS

運用中ナビゲーションMEO
NORAD 52984·PAYLOAD·🇷🇺 Russia

打ち上げ Jul 7, 2022 から Plesetsk Cosmodrome

Loading…

次のパス (今後24時間)

TLE

最新Source: CelesTrak SupGP

元期: Sep 12, 2026, 23:59 UTC

1 52984C 20075A   26255.99979167  .00000000  00000+0  00000+0 0  2552
2 52984  64.2415 311.3877 0012611 269.6069 197.1190  2.13102358    15

AllMySatでCOSMOS 2557をリアルタイム追跡

Download on the App Store